Terminal Aerodrome Forecast
Issued by NWS

Home | Current Version | Previous Version | Text Only | Print | Product List | Glossary On
Versions: 1 2 3 4 5 6 7 8 9 10 11 12 13 14 15 16 17 18 19 20 21 22 23 24 25
000
FTUS45 KLKN 042320
TAFELY
TAF
KELY 042320Z 0500/0524 17028G38KT P6SM SCT100 SCT250
     FM050300 18020G30KT P6SM SCT100 SCT250
     FM050600 19015KT P6SM SCT250
     FM051800 22014G24KT P6SM SCT080=

USA.gov is the U.S. government's official web portal to all federal, state and local government web resources and services.